TimeCDT,TemperatureF,Dew PointF,Humidity,Sea Level PressureIn,VisibilityMPH,Wind Direction,Wind SpeedMPH,Gust SpeedMPH,PrecipitationIn,Events,Conditions,WindDirDegrees,DateUTC
12:15 AM,73.4,64.0,72,30.03,10.0,WSW,3.5,-,N/A,,Clear,240,2013-08-29 05:15:00
12:35 AM,72.7,64.4,75,30.03,10.0,WSW,3.5,-,N/A,,Clear,240,2013-08-29 05:35:00
12:55 AM,72.7,64.0,74,30.03,10.0,SW,5.8,-,N/A,,Clear,230,2013-08-29 05:55:00
1:15 AM,72.1,64.2,76,30.03,10.0,SSW,6.9,-,N/A,,Clear,210,2013-08-29 06:15:00
1:35 AM,72.7,64.6,76,30.03,10.0,SSW,4.6,-,N/A,,Clear,210,2013-08-29 06:35:00
1:55 AM,72.0,64.6,77,30.03,10.0,SW,5.8,-,N/A,,Clear,220,2013-08-29 06:55:00
2:15 AM,72.0,64.6,77,30.03,10.0,SW,4.6,-,N/A,,Clear,230,2013-08-29 07:15:00
2:35 AM,71.2,64.6,79,30.03,10.0,SW,5.8,-,N/A,,Clear,220,2013-08-29 07:35:00
2:55 AM,71.2,64.8,80,30.03,10.0,Calm,Calm,-,N/A,,Clear,0,2013-08-29 07:55:00
3:15 AM,72.0,65.3,79,30.03,10.0,SSW,3.5,-,N/A,,Clear,200,2013-08-29 08:15:00
3:35 AM,71.2,65.1,81,30.03,10.0,Calm,Calm,-,N/A,,Clear,0,2013-08-29 08:35:00
3:55 AM,69.3,65.7,88,30.03,10.0,Calm,Calm,-,N/A,,Clear,0,2013-08-29 08:55:00
4:15 AM,69.4,64.9,86,30.03,10.0,South,3.5,-,N/A,,Clear,190,2013-08-29 09:15:00
4:35 AM,67.8,64.4,89,30.03,10.0,Calm,Calm,-,N/A,,Clear,0,2013-08-29 09:35:00
4:55 AM,67.3,64.2,90,30.03,10.0,Calm,Calm,-,N/A,,Clear,0,2013-08-29 09:55:00
5:15 AM,67.6,64.2,89,30.03,10.0,Calm,Calm,-,N/A,,Clear,0,2013-08-29 10:15:00
5:35 AM,66.7,63.7,90,30.04,10.0,Calm,Calm,-,N/A,,Clear,0,2013-08-29 10:35:00
5:55 AM,67.1,63.9,89,30.04,10.0,Calm,Calm,-,N/A,,Clear,0,2013-08-29 10:55:00
6:15 AM,66.2,63.5,91,30.05,10.0,Calm,Calm,-,N/A,,Clear,0,2013-08-29 11:15:00
6:35 AM,66.0,63.1,90,30.05,7.0,Calm,Calm,-,N/A,,Clear,0,2013-08-29 11:35:00
6:55 AM,66.6,63.9,91,30.05,10.0,SE,4.6,-,N/A,,Clear,130,2013-08-29 11:55:00
7:15 AM,67.3,64.2,90,30.06,7.0,SE,4.6,-,N/A,,Clear,130,2013-08-29 12:15:00
7:35 AM,68.9,65.1,88,30.06,10.0,SE,3.5,-,N/A,,Clear,130,2013-08-29 12:35:00
7:55 AM,70.2,65.8,86,30.06,10.0,ESE,3.5,-,N/A,,Clear,120,2013-08-29 12:55:00
8:15 AM,70.7,65.8,85,30.06,10.0,Calm,Calm,-,N/A,,Clear,0,2013-08-29 13:15:00
8:35 AM,73.0,66.6,80,30.06,10.0,Calm,Calm,-,N/A,,Clear,0,2013-08-29 13:35:00
8:55 AM,76.5,67.5,74,30.06,10.0,SE,3.5,-,N/A,,Clear,140,2013-08-29 13:55:00
9:15 AM,79.0,68.2,69,30.06,10.0,Calm,Calm,-,N/A,,Clear,0,2013-08-29 14:15:00
9:35 AM,80.6,69.1,68,30.06,10.0,Calm,Calm,-,N/A,,Clear,0,2013-08-29 14:35:00
9:55 AM,80.6,69.3,68,30.06,10.0,SE,3.5,-,N/A,,Clear,130,2013-08-29 14:55:00
10:15 AM,83.3,69.1,62,30.06,10.0,SSE,4.6,-,N/A,,Clear,160,2013-08-29 15:15:00
10:35 AM,83.7,69.4,62,30.06,10.0,SE,4.6,-,N/A,,Clear,130,2013-08-29 15:35:00
10:55 AM,84.7,68.7,58,30.06,10.0,SSE,3.5,-,N/A,,Clear,160,2013-08-29 15:55:00
11:15 AM,86.9,68.9,55,30.06,10.0,SSE,6.9,-,N/A,,Clear,150,2013-08-29 16:15:00
11:35 AM,88.0,69.6,54,30.05,10.0,SSW,9.2,-,N/A,,Scattered Clouds,200,2013-08-29 16:35:00
11:55 AM,88.3,69.1,53,30.04,10.0,South,9.2,-,N/A,,Scattered Clouds,190,2013-08-29 16:55:00
12:15 PM,87.4,68.5,53,30.04,10.0,SSW,6.9,-,N/A,,Clear,200,2013-08-29 17:15:00
12:35 PM,86.9,68.9,55,30.04,10.0,South,5.8,-,N/A,,Clear,180,2013-08-29 17:35:00
12:55 PM,87.8,69.3,54,30.03,10.0,South,5.8,-,N/A,,Clear,170,2013-08-29 17:55:00
1:15 PM,90.0,68.7,49,30.02,10.0,SSE,5.8,-,N/A,,Clear,160,2013-08-29 18:15:00
1:35 PM,87.8,67.8,51,30.02,10.0,Calm,Calm,-,N/A,,Clear,0,2013-08-29 18:35:00
1:55 PM,88.7,68.2,51,30.01,10.0,South,5.8,-,N/A,,Scattered Clouds,180,2013-08-29 18:55:00
2:15 PM,89.1,68.4,50,30.00,10.0,SSW,5.8,-,N/A,,Clear,210,2013-08-29 19:15:00
2:16 PM,89.6,68.0,49,30.00,10.0,SSW,4.6,-,N/A,,Clear,210,2013-08-29 19:16:00
2:35 PM,88.5,69.3,53,30.00,10.0,WSW,3.5,-,N/A,,Mostly Cloudy,240,2013-08-29 19:35:00
2:55 PM,90.3,68.7,49,29.99,10.0,South,5.8,-,N/A,,Scattered Clouds,190,2013-08-29 19:55:00
3:15 PM,89.6,68.7,50,29.99,10.0,South,3.5,-,N/A,,Scattered Clouds,190,2013-08-29 20:15:00
3:35 PM,90.7,68.4,48,29.98,10.0,South,8.1,-,N/A,,Mostly Cloudy,190,2013-08-29 20:35:00
3:55 PM,90.5,67.8,47,29.98,10.0,South,4.6,-,N/A,,Scattered Clouds,190,2013-08-29 20:55:00
4:15 PM,91.8,67.5,45,29.97,10.0,SW,6.9,-,N/A,,Clear,220,2013-08-29 21:15:00
4:35 PM,91.8,68.5,46,29.97,10.0,South,4.6,-,N/A,,Clear,190,2013-08-29 21:35:00
4:55 PM,90.1,69.1,50,29.97,10.0,SSW,8.1,-,N/A,,Scattered Clouds,200,2013-08-29 21:55:00
5:15 PM,90.7,64.4,42,29.96,10.0,South,8.1,-,N/A,,Overcast,180,2013-08-29 22:15:00
5:35 PM,91.6,68.0,46,29.96,10.0,South,4.6,-,N/A,,Mostly Cloudy,170,2013-08-29 22:35:00
5:55 PM,90.5,69.8,50,29.95,10.0,South,4.6,-,N/A,,Scattered Clouds,170,2013-08-29 22:55:00
6:15 PM,89.6,70.3,53,29.95,10.0,SE,4.6,-,N/A,,Clear,140,2013-08-29 23:15:00
6:35 PM,88.5,70.7,55,29.95,10.0,SE,4.6,-,N/A,,Clear,140,2013-08-29 23:35:00
6:55 PM,87.8,71.8,59,29.95,10.0,SE,3.5,-,N/A,,Clear,140,2013-08-29 23:55:00
7:15 PM,86.7,71.8,61,29.95,10.0,SE,3.5,-,N/A,,Scattered Clouds,140,2013-08-30 00:15:00
7:35 PM,84.6,71.6,65,29.95,10.0,SE,4.6,-,N/A,,Scattered Clouds,140,2013-08-30 00:35:00
7:55 PM,82.8,71.2,68,29.95,10.0,SSE,3.5,-,N/A,,Clear,160,2013-08-30 00:55:00
8:15 PM,81.5,70.7,70,29.95,10.0,SSE,4.6,-,N/A,,Clear,150,2013-08-30 01:15:00
8:35 PM,81.5,70.2,68,29.96,10.0,SSE,4.6,-,N/A,,Clear,160,2013-08-30 01:35:00
8:55 PM,81.1,70.0,69,29.95,10.0,SSE,3.5,-,N/A,,Clear,160,2013-08-30 01:55:00
9:15 PM,81.1,70.0,69,29.96,10.0,South,4.6,-,N/A,,Clear,170,2013-08-30 02:15:00
9:35 PM,80.6,69.8,70,29.96,10.0,South,4.6,-,N/A,,Clear,180,2013-08-30 02:35:00
9:55 PM,80.2,69.8,70,29.95,10.0,South,4.6,-,N/A,,Clear,180,2013-08-30 02:55:00
10:15 PM,79.7,69.8,72,29.95,10.0,South,4.6,-,N/A,,Clear,170,2013-08-30 03:15:00
10:35 PM,78.1,69.8,76,29.95,10.0,South,3.5,-,N/A,,Clear,170,2013-08-30 03:35:00
10:55 PM,77.4,69.4,76,29.95,10.0,SSE,4.6,-,N/A,,Clear,160,2013-08-30 03:55:00
11:15 PM,77.2,69.4,77,29.94,10.0,South,3.5,-,N/A,,Clear,170,2013-08-30 04:15:00
11:35 PM,77.0,69.3,77,29.95,10.0,South,3.5,-,N/A,,Clear,170,2013-08-30 04:35:00
11:55 PM,76.6,69.3,78,29.95,10.0,South,4.6,-,N/A,,Clear,170,2013-08-30 04:55:00